This is the latest recevied weather packets stored in our database for station/object AA8FM-13. If no packets are shown the sender has not sent any weather packets the latest 10 day(s).
| Time | Temp. | Humidity | Pressure | Rain* | Wind** | Luminosity | Snow |
|---|---|---|---|---|---|---|---|
| 1778175459 | 15° C | 52% | 1008.6 hPa | 0 mm | - | 197 W/m² | - |
| 1778175155 | 15° C | 53% | 1008.5 hPa | 0 mm | - | 147 W/m² | - |
| 1778174852 | 15° C | 53% | 1008.9 hPa | 0 mm | - | 722 W/m² | - |
| 1778174549 | 15.56° C | 47% | 1008.7 hPa | 0 mm | - | 836 W/m² | - |
| 1778174249 | 16.11° C | 47% | 1008.9 hPa | 0 mm | - | 837 W/m² | - |
| 1778173946 | 16.11° C | 50% | 1009 hPa | 0 mm | - | 786 W/m² | - |
| 1778173643 | 16.11° C | 48% | 1009.1 hPa | 0 mm | - | 775 W/m² | - |
| 1778173340 | 16.11° C | 52% | 1009 hPa | 0 mm | - | 743 W/m² | - |
| 1778173036 | 15.56° C | 50% | 1009.2 hPa | 0 mm | - | 740 W/m² | - |
| 1778172732 | 14.44° C | 50% | 1009.3 hPa | 0 mm | - | 733 W/m² | - |
| 1778172428 | 15° C | 50% | 1009.4 hPa | 0 mm | - | 135 W/m² | - |
| 1778172126 | 14.44° C | 55% | 1009.3 hPa | 0 mm | - | 441 W/m² | - |
| 1778171823 | 14.44° C | 52% | 1009.4 hPa | 0 mm | - | 171 W/m² | - |
| 1778171521 | 15° C | 50% | 1009.3 hPa | 0 mm | - | 740 W/m² | - |
| 1778171216 | 15.56° C | 49% | 1009.5 hPa | 0 mm | - | 703 W/m² | - |
| 1778170912 | 15.56° C | 50% | 1009.7 hPa | 0 mm | - | 718 W/m² | - |
| 1778170609 | 15° C | 52% | 1009.5 hPa | 0 mm | - | 698 W/m² | - |
| 1778170305 | 15.56° C | 49% | 1009.5 hPa | 0 mm | - | 722 W/m² | - |
| 1778170002 | 15° C | 51% | 1009.4 hPa | 0 mm | - | 754 W/m² | - |
| 1778169699 | 15° C | 53% | 1009.7 hPa | 0 mm | - | 725 W/m² | - |
| 1778169394 | 14.44° C | 53% | 1009.9 hPa | 0 mm | - | 725 W/m² | - |
| 1778169091 | 14.44° C | 56% | 1009.9 hPa | 0 mm | - | 363 W/m² | - |
| 1778168787 | 15° C | 54% | 1009.7 hPa | 0 mm | - | 157 W/m² | - |
| 1778168485 | 14.44° C | 53% | 1009.7 hPa | 0 mm | - | 542 W/m² | - |
| 1778168181 | 15° C | 51% | 1010 hPa | 0 mm | - | 751 W/m² | - |
* Rain latest hour (hover to see other rain measurements)
** Current wind speed in m/s (hover to see current wind gust speed)